CDT,Max TemperatureF,Mean TemperatureF,Min TemperatureF,Max Dew PointF,MeanDew PointF,Min DewpointF,Max Humidity, Mean Humidity, Min Humidity, Max Sea Level PressureIn, Mean Sea Level PressureIn, Min Sea Level PressureIn, Max VisibilityMiles, Mean VisibilityMiles, Min VisibilityMiles, Max Wind SpeedMPH, Mean Wind SpeedMPH, Max Gust SpeedMPH,PrecipitationIn, CloudCover, Events, WindDirDegrees
2013-7-1,80,64,50,55,48,34,93,59,38,30.20,30.16,30.11,10,10,10,9,3,18,0.00,0,,26
2013-7-2,78,61,45,43,41,39,90,52,27,30.20,30.15,30.08,10,10,10,8,4,,0.00,0,,355
2013-7-3,79,64,52,55,50,37,83,57,28,30.12,30.07,30.01,10,10,10,12,2,16,0.00,4,,160
2013-7-4,84,71,60,60,57,54,90,64,38,30.03,29.99,29.95,10,10,10,10,4,,0.00,4,,192
2013-7-5,87,73,60,61,57,54,87,57,33,30.01,29.96,29.91,10,10,10,17,5,26,0.00,0,,183
2013-7-6,90,77,64,63,60,58,87,58,35,29.97,29.94,29.90,10,10,10,13,6,20,0.00,0,,183
2013-7-7,87,76,68,70,67,63,94,78,57,29.96,29.91,29.87,10,8,2,15,3,,0.13,5,Rain,164
2013-7-8,82,73,64,70,65,63,100,83,53,30.01,29.94,29.88,10,8,2,13,4,18,0.54,6,Rain-Thunderstorm,41
2013-7-9,75,70,64,70,66,64,100,90,73,30.02,29.89,29.70,10,6,0,13,4,,0.16,7,Fog-Rain,154
2013-7-10,73,65,57,64,56,50,94,72,43,30.00,29.86,29.74,10,10,10,18,11,28,0.00,4,,302
2013-7-11,82,66,52,56,51,47,93,60,31,30.13,30.08,30.00,10,10,10,8,3,,0.00,0,,177
2013-7-12,82,68,53,62,57,51,94,67,42,30.13,30.09,30.06,10,9,1,15,5,20,0.00,0,,162
2013-7-13,87,74,62,62,58,55,84,62,37,30.16,30.11,30.07,10,10,10,13,6,21,0.00,0,,171
2013-7-14,88,72,57,67,60,55,96,68,40,30.23,30.20,30.18,10,9,2,12,3,18,0.00,0,,191
2013-7-15,91,77,64,70,66,61,90,66,40,30.28,30.25,30.22,10,10,9,14,3,17,0.00,1,,196
2013-7-16,93,80,68,72,69,66,93,68,45,30.25,30.20,30.14,10,10,4,12,4,23,0.00,1,,202
2013-7-17,93,82,73,70,68,64,84,64,39,30.22,30.17,30.11,10,10,10,10,6,20,0.00,1,,274
2013-7-18,93,82,71,73,69,67,94,69,42,30.09,29.93,29.72,10,9,1,16,5,33,0.15,2,Rain-Thunderstorm,239
2013-7-19,87,74,60,70,64,55,83,64,46,29.79,29.69,29.62,10,10,9,21,10,29,0.00,2,Rain-Thunderstorm,290
2013-7-20,73,64,51,56,49,44,80,58,34,30.05,29.92,29.78,10,10,10,10,5,16,0.00,1,,347
2013-7-21,68,56,46,55,50,43,93,75,63,30.07,30.01,29.94,10,10,10,8,2,,0.00,6,,151
2013-7-22,84,67,50,67,58,49,96,75,51,29.93,29.77,29.62,10,9,2,14,5,23,0.04,2,,204
2013-7-23,70,60,48,53,46,41,90,63,36,30.02,29.88,29.72,10,10,10,23,10,31,0.00,3,,331
2013-7-24,75,58,42,55,46,39,100,72,34,30.08,30.04,30.01,10,8,0,9,1,17,0.00,3,Fog-Rain,338
2013-7-25,81,63,46,61,55,46,100,79,43,30.01,29.96,29.88,10,8,0,14,4,25,0.09,4,Fog-Rain-Thunderstorm,137
2013-7-26,72,58,48,63,58,45,100,90,64,29.95,29.88,29.81,10,8,2,15,5,21,0.34,7,Rain-Thunderstorm,262
2013-7-27,61,54,48,52,47,42,94,82,62,29.91,29.85,29.81,10,8,2,12,8,,0.17,8,Rain,325
2013-7-28,55,52,48,51,48,46,94,89,80,29.98,29.84,29.79,10,9,4,16,8,24,0.11,8,Rain,309
2013-7-29,75,63,51,54,49,45,90,66,35,30.16,30.09,29.99,10,10,10,10,7,,0.00,2,,322
2013-7-30,73,62,52,60,57,49,93,79,61,30.18,30.13,30.07,10,10,10,10,2,,0.00,6,Rain,186
2013-7-31,80,68,57,61,57,51,96,69,46,30.05,29.95,29.88,10,10,6,14,4,21,0.00,3,,274